WXM80 ListenWXM80 Stop

You find our weather info also at:

UK Metoffice

WeatherCloud

Weather Underground

Northeastern Weather Network

AWEKAS

Citizen Weather Observer Program (CWOP)

HAMweather, WeatherForYou, PWS Weather


Weather Underground History page Text

Daily Summary for March 6, 2017 Units:  Both    English   Metric
« Previous Day
Next Day »
Daily Weekly Monthly Yearly Custom
  High: Low: Average:
Temperature: 43.0 °F /  6.1 °C 24.2 °F /  -4.3 °C 34.1 °F /  1.2 °C
Dew Point: 32.9 °F /  0.5 °C 6.6 °F /  -14.1 °C 16.9 °F /  -8.4 °C
Humidity: 77 % 34 % 50 %
Wind Speed: 5.9 mph /  9.5 km/h - 1.8 mph /  2.9 km/h
Wind Gust: 9.2 mph /  14.8 km/h - -
Wind:- - SSE
Pressure: 30.52 in /  1033.4 hPa 30.40 in /  1029.3 hPa -
Precipitation: 0.00 in /  0 mm    
Historical Graphs
 
 
Tabular Data for March 6, 2017
Time Temperature Dew Point Pressure Wind Wind Speed Wind Gust Humidity Rainfall Rate (Hourly)
00:02 28.2 °F /  -2.1 °C 7.5 °F /  -13.6 °C 30.51 in /  1033.1 hPa NNW 3.6 mph /  5.8 km/h 5.8 mph /  9.3 km/h 41 % 0.00 in /  0 mm
00:07 28.1 °F /  -2.2 °C 8.4 °F /  -13.1 °C 30.50 in /  1032.7 hPa North 0.1 mph /  0.2 km/h 1.2 mph /  1.9 km/h 43 % 0.00 in /  0 mm
00:12 28.0 °F /  -2.2 °C 8.4 °F /  -13.1 °C 30.50 in /  1032.7 hPa NNW 2.3 mph /  3.7 km/h 3.5 mph /  5.6 km/h 43 % 0.00 in /  0 mm
00:17 27.9 °F /  -2.3 °C 8.3 °F /  -13.2 °C 30.51 in /  1033.1 hPa NW 1.4 mph /  2.3 km/h 3.5 mph /  5.6 km/h 43 % 0.00 in /  0 mm
00:23 27.8 °F /  -2.3 °C 8.2 °F /  -13.2 °C 30.51 in /  1033.1 hPa WNW 3.5 mph /  5.6 km/h 6.0 mph /  9.7 km/h 43 % 0.00 in /  0 mm
00:28 27.7 °F /  -2.4 °C 8.1 °F /  -13.3 °C 30.51 in /  1033.1 hPa WNW 0.6 mph /  1 km/h 2.3 mph /  3.7 km/h 43 % 0.00 in /  0 mm
00:33 27.7 °F /  -2.4 °C 8.1 °F /  -13.3 °C 30.51 in /  1033.1 hPa WNW 1.7 mph /  2.7 km/h 3.5 mph /  5.6 km/h 43 % 0.00 in /  0 mm
00:38 27.6 °F /  -2.4 °C 8.0 °F /  -13.3 °C 30.51 in /  1033.1 hPa WNW 0.2 mph /  0.3 km/h 1.2 mph /  1.9 km/h 43 % 0.00 in /  0 mm
00:43 27.5 °F /  -2.5 °C 7.9 °F /  -13.4 °C 30.51 in /  1033.1 hPa WNW 0.5 mph /  0.8 km/h 3.5 mph /  5.6 km/h 43 % 0.00 in /  0 mm
00:48 27.4 °F /  -2.6 °C 7.8 °F /  -13.4 °C 30.51 in /  1033.1 hPa WNW 1.0 mph /  1.6 km/h 3.0 mph /  4.8 km/h 43 % 0.00 in /  0 mm
00:53 27.2 °F /  -2.7 °C 7.6 °F /  -13.6 °C 30.50 in /  1032.7 hPa WNW 1.0 mph /  1.6 km/h 2.0 mph /  3.2 km/h 43 % 0.00 in /  0 mm
00:58 27.1 °F /  -2.7 °C 8.0 °F /  -13.3 °C 30.51 in /  1033.1 hPa WNW 1.2 mph /  1.9 km/h 1.2 mph /  1.9 km/h 44 % 0.00 in /  0 mm
01:03 27.0 °F /  -2.8 °C 8.0 °F /  -13.3 °C 30.51 in /  1033.1 hPa Calm   4.0 mph /  6.4 km/h 44 % 0.00 in /  0 mm
01:08 26.8 °F /  -2.9 °C 7.8 °F /  -13.4 °C 30.51 in /  1033.1 hPa WNW 1.0 mph /  1.6 km/h 3.0 mph /  4.8 km/h 44 % 0.00 in /  0 mm
01:13 26.7 °F /  -2.9 °C 7.2 °F /  -13.8 °C 30.50 in /  1032.7 hPa NNW 2.0 mph /  3.2 km/h 5.0 mph /  8 km/h 43 % 0.00 in /  0 mm
01:18 26.6 °F /  -3 °C 6.6 °F /  -14.1 °C 30.51 in /  1033.1 hPa NNE 1.0 mph /  1.6 km/h 4.0 mph /  6.4 km/h 42 % 0.00 in /  0 mm
01:23 26.5 °F /  -3.1 °C 7.0 °F /  -13.9 °C 30.51 in /  1033.1 hPa Calm   2.0 mph /  3.2 km/h 43 % 0.00 in /  0 mm
01:28 26.5 °F /  -3.1 °C 7.0 °F /  -13.9 °C 30.50 in /  1032.7 hPa Calm   2.0 mph /  3.2 km/h 43 % 0.00 in /  0 mm
01:33 26.4 °F /  -3.1 °C 6.9 °F /  -13.9 °C 30.51 in /  1033.1 hPa North 0.5 mph /  0.8 km/h 3.0 mph /  4.8 km/h 43 % 0.00 in /  0 mm
01:38 26.3 °F /  -3.2 °C 6.8 °F /  -14 °C 30.50 in /  1032.7 hPa NNW 2.0 mph /  3.2 km/h 4.0 mph /  6.4 km/h 43 % 0.00 in /  0 mm
01:43 26.2 °F /  -3.2 °C 7.7 °F /  -13.5 °C 30.50 in /  1032.7 hPa Calm   2.0 mph /  3.2 km/h 45 % 0.00 in /  0 mm
01:48 26.1 °F /  -3.3 °C 7.6 °F /  -13.6 °C 30.50 in /  1032.7 hPa WNW 1.0 mph /  1.6 km/h 4.0 mph /  6.4 km/h 45 % 0.00 in /  0 mm
01:53 25.9 °F /  -3.4 °C 7.5 °F /  -13.6 °C 30.50 in /  1032.7 hPa West 1.0 mph /  1.6 km/h 4.0 mph /  6.4 km/h 45 % 0.00 in /  0 mm
01:58 25.8 °F /  -3.4 °C 7.8 °F /  -13.4 °C 30.50 in /  1032.7 hPa West 2.1 mph /  3.4 km/h 2.3 mph /  3.7 km/h 46 % 0.00 in /  0 mm
02:03 25.7 °F /  -3.5 °C 8.2 °F /  -13.2 °C 30.50 in /  1032.7 hPa West 0.1 mph /  0.2 km/h 2.3 mph /  3.7 km/h 47 % 0.00 in /  0 mm
02:08 25.6 °F /  -3.6 °C 8.6 °F /  -13 °C 30.50 in /  1032.7 hPa Calm     48 % 0.00 in /  0 mm
02:13 25.5 °F /  -3.6 °C 8.5 °F /  -13.1 °C 30.50 in /  1032.7 hPa Calm     48 % 0.00 in /  0 mm
02:18 25.4 °F /  -3.7 °C 8.4 °F /  -13.1 °C 30.50 in /  1032.7 hPa WNW 0.7 mph /  1.1 km/h 2.3 mph /  3.7 km/h 48 % 0.00 in /  0 mm
02:23 25.3 °F /  -3.7 °C 8.8 °F /  -12.9 °C 30.50 in /  1032.7 hPa WNW 1.1 mph /  1.8 km/h 2.3 mph /  3.7 km/h 49 % 0.00 in /  0 mm
02:29 25.2 °F /  -3.8 °C 8.7 °F /  -12.9 °C 30.50 in /  1032.7 hPa WNW 1.0 mph /  1.6 km/h 3.5 mph /  5.6 km/h 49 % 0.00 in /  0 mm
02:34 25.2 °F /  -3.8 °C 8.7 °F /  -12.9 °C 30.50 in /  1032.7 hPa WNW 0.4 mph /  0.6 km/h 2.3 mph /  3.7 km/h 49 % 0.00 in /  0 mm
02:39 25.1 °F /  -3.8 °C 9.0 °F /  -12.8 °C 30.50 in /  1032.7 hPa Calm     50 % 0.00 in /  0 mm
02:44 25.1 °F /  -3.8 °C 8.6 °F /  -13 °C 30.49 in /  1032.4 hPa WNW 0.4 mph /  0.6 km/h 2.3 mph /  3.7 km/h 49 % 0.00 in /  0 mm
02:49 25.0 °F /  -3.9 °C 8.5 °F /  -13.1 °C 30.49 in /  1032.4 hPa WNW 0.2 mph /  0.3 km/h 2.3 mph /  3.7 km/h 49 % 0.00 in /  0 mm
02:54 24.9 °F /  -3.9 °C 8.4 °F /  -13.1 °C 30.49 in /  1032.4 hPa WNW 1.1 mph /  1.8 km/h 2.3 mph /  3.7 km/h 49 % 0.00 in /  0 mm
02:59 24.9 °F /  -3.9 °C 8.4 °F /  -13.1 °C 30.49 in /  1032.4 hPa Calm     49 % 0.00 in /  0 mm
03:04 24.9 °F /  -3.9 °C 8.4 °F /  -13.1 °C 30.48 in /  1032.1 hPa WNW 0.1 mph /  0.2 km/h   49 % 0.00 in /  0 mm
03:09 24.9 °F /  -3.9 °C 9.3 °F /  -12.6 °C 30.48 in /  1032.1 hPa WNW 0.1 mph /  0.2 km/h 1.2 mph /  1.9 km/h 51 % 0.00 in /  0 mm
03:14 24.8 °F /  -4 °C 10.1 °F /  -12.2 °C 30.48 in /  1032.1 hPa Calm   1.0 mph /  1.6 km/h 53 % 0.00 in /  0 mm
03:19 24.7 °F /  -4.1 °C 10.0 °F /  -12.2 °C 30.48 in /  1032.1 hPa WNW 1.0 mph /  1.6 km/h 3.5 mph /  5.6 km/h 53 % 0.00 in /  0 mm
03:24 24.5 °F /  -4.2 °C 8.5 °F /  -13.1 °C 30.48 in /  1032.1 hPa North 2.8 mph /  4.5 km/h 4.6 mph /  7.4 km/h 50 % 0.00 in /  0 mm
03:29 24.4 °F /  -4.2 °C 9.3 °F /  -12.6 °C 30.49 in /  1032.4 hPa NNE 1.3 mph /  2.1 km/h 3.5 mph /  5.6 km/h 52 % 0.00 in /  0 mm
03:35 24.2 °F /  -4.3 °C 9.5 °F /  -12.5 °C 30.48 in /  1032.1 hPa NNE 2.6 mph /  4.2 km/h 3.5 mph /  5.6 km/h 53 % 0.00 in /  0 mm
03:40 24.2 °F /  -4.3 °C 8.7 °F /  -12.9 °C 30.48 in /  1032.1 hPa NNE 5.4 mph /  8.7 km/h 7.0 mph /  11.3 km/h 51 % 0.00 in /  0 mm
03:45 24.3 °F /  -4.3 °C 9.2 °F /  -12.7 °C 30.49 in /  1032.4 hPa NNE 3.9 mph /  6.3 km/h 5.8 mph /  9.3 km/h 52 % 0.00 in /  0 mm
03:50 24.4 °F /  -4.2 °C 9.3 °F /  -12.6 °C 30.49 in /  1032.4 hPa NNE 3.5 mph /  5.6 km/h 8.1 mph /  13 km/h 52 % 0.00 in /  0 mm
03:52 24.5 °F /  -4.2 °C 8.9 °F /  -12.8 °C 30.49 in /  1032.4 hPa NNE 2.5 mph /  4 km/h 3.5 mph /  5.6 km/h 51 % 0.00 in /  0 mm
03:57 24.6 °F /  -4.1 °C 9.0 °F /  -12.8 °C 30.50 in /  1032.7 hPa North 4.5 mph /  7.2 km/h 8.1 mph /  13 km/h 51 % 0.00 in /  0 mm
04:02 24.8 °F /  -4 °C 8.8 °F /  -12.9 °C 30.50 in /  1032.7 hPa North 2.4 mph /  3.9 km/h 5.8 mph /  9.3 km/h 50 % 0.00 in /  0 mm
04:07 24.9 °F /  -3.9 °C 8.4 °F /  -13.1 °C 30.50 in /  1032.7 hPa North 2.5 mph /  4 km/h 4.6 mph /  7.4 km/h 49 % 0.00 in /  0 mm
04:12 25.1 °F /  -3.8 °C 8.6 °F /  -13 °C 30.50 in /  1032.7 hPa NNE 3.4 mph /  5.5 km/h 5.0 mph /  8 km/h 49 % 0.00 in /  0 mm
04:17 25.2 °F /  -3.8 °C 8.7 °F /  -12.9 °C 30.50 in /  1032.7 hPa NNE 3.2 mph /  5.1 km/h 4.0 mph /  6.4 km/h 49 % 0.00 in /  0 mm
04:22 25.2 °F /  -3.8 °C 8.2 °F /  -13.2 °C 30.50 in /  1032.7 hPa NNE 4.0 mph /  6.4 km/h 5.8 mph /  9.3 km/h 48 % 0.00 in /  0 mm
04:27 25.3 °F /  -3.7 °C 8.3 °F /  -13.2 °C 30.50 in /  1032.7 hPa NNE 4.0 mph /  6.4 km/h 5.8 mph /  9.3 km/h 48 % 0.00 in /  0 mm
04:32 25.3 °F /  -3.7 °C 8.8 °F /  -12.9 °C 30.50 in /  1032.7 hPa NNE 1.5 mph /  2.4 km/h 3.5 mph /  5.6 km/h 49 % 0.00 in /  0 mm
04:37 25.3 °F /  -3.7 °C 8.8 °F /  -12.9 °C 30.51 in /  1033.1 hPa North 1.0 mph /  1.6 km/h 3.0 mph /  4.8 km/h 49 % 0.00 in /  0 mm
04:42 25.3 °F /  -3.7 °C 9.2 °F /  -12.7 °C 30.51 in /  1033.1 hPa North 0.6 mph /  1 km/h 2.3 mph /  3.7 km/h 50 % 0.00 in /  0 mm
04:47 25.3 °F /  -3.7 °C 9.7 °F /  -12.4 °C 30.51 in /  1033.1 hPa North 0.4 mph /  0.6 km/h 3.5 mph /  5.6 km/h 51 % 0.00 in /  0 mm
04:53 25.3 °F /  -3.7 °C 9.7 °F /  -12.4 °C 30.51 in /  1033.1 hPa North 1.1 mph /  1.8 km/h 3.0 mph /  4.8 km/h 51 % 0.00 in /  0 mm
04:58 25.3 °F /  -3.7 °C 9.2 °F /  -12.7 °C 30.51 in /  1033.1 hPa North 0.1 mph /  0.2 km/h 3.5 mph /  5.6 km/h 50 % 0.00 in /  0 mm
05:03 25.2 °F /  -3.8 °C 9.1 °F /  -12.7 °C 30.51 in /  1033.1 hPa North 0.2 mph /  0.3 km/h 1.2 mph /  1.9 km/h 50 % 0.00 in /  0 mm
05:08 25.2 °F /  -3.8 °C 9.1 °F /  -12.7 °C 30.51 in /  1033.1 hPa North 0.8 mph /  1.3 km/h 2.3 mph /  3.7 km/h 50 % 0.00 in /  0 mm
05:13 25.1 °F /  -3.8 °C 9.5 °F /  -12.5 °C 30.51 in /  1033.1 hPa North 0.3 mph /  0.5 km/h 2.0 mph /  3.2 km/h 51 % 0.00 in /  0 mm
05:14 25.1 °F /  -3.8 °C 9.5 °F /  -12.5 °C 30.51 in /  1033.1 hPa North 1.7 mph /  2.7 km/h 3.5 mph /  5.6 km/h 51 % 0.00 in /  0 mm
05:19 25.1 °F /  -3.8 °C 9.9 °F /  -12.3 °C 30.51 in /  1033.1 hPa North 0.2 mph /  0.3 km/h 1.2 mph /  1.9 km/h 52 % 0.00 in /  0 mm
05:24 25.0 °F /  -3.9 °C 9.8 °F /  -12.3 °C 30.51 in /  1033.1 hPa North 0.4 mph /  0.6 km/h 2.3 mph /  3.7 km/h 52 % 0.00 in /  0 mm
05:30 24.9 °F /  -3.9 °C 9.7 °F /  -12.4 °C 30.51 in /  1033.1 hPa North 0.4 mph /  0.6 km/h 3.5 mph /  5.6 km/h 52 % 0.00 in /  0 mm
05:35 24.8 °F /  -4 °C 9.6 °F /  -12.4 °C 30.51 in /  1033.1 hPa North 0.4 mph /  0.6 km/h 1.2 mph /  1.9 km/h 52 % 0.00 in /  0 mm
05:40 24.7 °F /  -4.1 °C 9.5 °F /  -12.5 °C 30.51 in /  1033.1 hPa NNW 0.4 mph /  0.6 km/h 3.5 mph /  5.6 km/h 52 % 0.00 in /  0 mm
05:45 24.6 °F /  -4.1 °C 9.5 °F /  -12.5 °C 30.51 in /  1033.1 hPa NNW 0.2 mph /  0.3 km/h 1.2 mph /  1.9 km/h 52 % 0.00 in /  0 mm
05:50 24.5 °F /  -4.2 °C 9.4 °F /  -12.6 °C 30.51 in /  1033.1 hPa NNW 0.7 mph /  1.1 km/h 3.0 mph /  4.8 km/h 52 % 0.00 in /  0 mm
05:55 24.5 °F /  -4.2 °C 9.4 °F /  -12.6 °C 30.51 in /  1033.1 hPa Calm     52 % 0.00 in /  0 mm
06:00 24.4 °F /  -4.2 °C 9.3 °F /  -12.6 °C 30.51 in /  1033.1 hPa Calm   2.3 mph /  3.7 km/h 52 % 0.00 in /  0 mm
06:05 24.3 °F /  -4.3 °C 9.2 °F /  -12.7 °C 30.51 in /  1033.1 hPa Calm     52 % 0.00 in /  0 mm
06:07 24.3 °F /  -4.3 °C 9.2 °F /  -12.7 °C 30.51 in /  1033.1 hPa NNW 0.1 mph /  0.2 km/h 1.0 mph /  1.6 km/h 52 % 0.00 in /  0 mm
06:12 24.2 °F /  -4.3 °C 8.7 °F /  -12.9 °C 30.51 in /  1033.1 hPa NNW 0.8 mph /  1.3 km/h 2.3 mph /  3.7 km/h 51 % 0.00 in /  0 mm
06:17 24.2 °F /  -4.3 °C 8.7 °F /  -12.9 °C 30.51 in /  1033.1 hPa NNW 1.9 mph /  3.1 km/h 3.5 mph /  5.6 km/h 51 % 0.00 in /  0 mm
06:22 24.2 °F /  -4.3 °C 8.7 °F /  -12.9 °C 30.51 in /  1033.1 hPa NNW 0.3 mph /  0.5 km/h 3.5 mph /  5.6 km/h 51 % 0.00 in /  0 mm
06:27 24.3 °F /  -4.3 °C 8.7 °F /  -12.9 °C 30.51 in /  1033.1 hPa North 1.2 mph /  1.9 km/h 3.5 mph /  5.6 km/h 51 % 0.00 in /  0 mm
06:32 24.3 °F /  -4.3 °C 8.7 °F /  -12.9 °C 30.52 in /  1033.4 hPa North 2.0 mph /  3.2 km/h 3.5 mph /  5.6 km/h 51 % 0.00 in /  0 mm
06:37 24.4 °F /  -4.2 °C 8.4 °F /  -13.1 °C 30.51 in /  1033.1 hPa NNW 0.3 mph /  0.5 km/h 2.3 mph /  3.7 km/h 50 % 0.00 in /  0 mm
06:42 24.5 °F /  -4.2 °C 8.5 °F /  -13.1 °C 30.51 in /  1033.1 hPa NNW 2.1 mph /  3.4 km/h 3.5 mph /  5.6 km/h 50 % 0.00 in /  0 mm
06:47 24.7 °F /  -4.1 °C 8.7 °F /  -12.9 °C 30.51 in /  1033.1 hPa NNW 1.4 mph /  2.3 km/h 2.3 mph /  3.7 km/h 50 % 0.00 in /  0 mm
06:52 24.9 °F /  -3.9 °C 8.9 °F /  -12.8 °C 30.51 in /  1033.1 hPa North 1.3 mph /  2.1 km/h 2.3 mph /  3.7 km/h 50 % 0.00 in /  0 mm
06:57 25.2 °F /  -3.8 °C 9.6 °F /  -12.4 °C 30.51 in /  1033.1 hPa North 2.6 mph /  4.2 km/h 4.0 mph /  6.4 km/h 51 % 0.00 in /  0 mm
07:03 25.6 °F /  -3.6 °C 9.5 °F /  -12.5 °C 30.52 in /  1033.4 hPa North 1.4 mph /  2.3 km/h 2.3 mph /  3.7 km/h 50 % 0.00 in /  0 mm
07:08 26.0 °F /  -3.3 °C 10.3 °F /  -12.1 °C 30.52 in /  1033.4 hPa NNE 2.8 mph /  4.5 km/h 3.5 mph /  5.6 km/h 51 % 0.00 in /  0 mm
07:13 26.4 °F /  -3.1 °C 10.3 °F /  -12.1 °C 30.52 in /  1033.4 hPa NNE 1.2 mph /  1.9 km/h 2.3 mph /  3.7 km/h 50 % 0.00 in /  0 mm
07:18 27.0 °F /  -2.8 °C 10.8 °F /  -11.8 °C 30.52 in /  1033.4 hPa NNE 3.2 mph /  5.1 km/h 4.6 mph /  7.4 km/h 50 % 0.00 in /  0 mm
07:23 27.5 °F /  -2.5 °C 11.3 °F /  -11.5 °C 30.51 in /  1033.1 hPa NNE 1.0 mph /  1.6 km/h 3.0 mph /  4.8 km/h 50 % 0.00 in /  0 mm
07:28 28.0 °F /  -2.2 °C 11.3 °F /  -11.5 °C 30.51 in /  1033.1 hPa NNE 2.0 mph /  3.2 km/h 4.0 mph /  6.4 km/h 49 % 0.00 in /  0 mm
07:33 28.4 °F /  -2 °C 11.7 °F /  -11.3 °C 30.51 in /  1033.1 hPa NNE 1.0 mph /  1.6 km/h 4.0 mph /  6.4 km/h 49 % 0.00 in /  0 mm
07:38 29.0 °F /  -1.7 °C 11.7 °F /  -11.3 °C 30.51 in /  1033.1 hPa NNE 0.7 mph /  1.1 km/h 2.3 mph /  3.7 km/h 48 % 0.00 in /  0 mm
07:43 29.4 °F /  -1.4 °C 12.5 °F /  -10.8 °C 30.51 in /  1033.1 hPa NNE 2.0 mph /  3.2 km/h 4.0 mph /  6.4 km/h 49 % 0.00 in /  0 mm
07:48 29.8 °F /  -1.2 °C 12.5 °F /  -10.8 °C 30.51 in /  1033.1 hPa NE 1.5 mph /  2.4 km/h 3.5 mph /  5.6 km/h 48 % 0.00 in /  0 mm
07:53 30.1 °F /  -1.1 °C 11.8 °F /  -11.2 °C 30.51 in /  1033.1 hPa NE 1.0 mph /  1.6 km/h 5.0 mph /  8 km/h 46 % 0.00 in /  0 mm
07:58 30.4 °F /  -0.9 °C 13.0 °F /  -10.6 °C 30.51 in /  1033.1 hPa NNE 3.0 mph /  4.8 km/h 4.0 mph /  6.4 km/h 48 % 0.00 in /  0 mm
08:03 30.7 °F /  -0.7 °C 12.8 °F /  -10.7 °C 30.51 in /  1033.1 hPa NNE 2.5 mph /  4 km/h 3.5 mph /  5.6 km/h 47 % 0.00 in /  0 mm
08:08 31.0 °F /  -0.6 °C 13.1 °F /  -10.5 °C 30.51 in /  1033.1 hPa NE 2.3 mph /  3.7 km/h 3.5 mph /  5.6 km/h 47 % 0.00 in /  0 mm
08:13 31.1 °F /  -0.5 °C 11.7 °F /  -11.3 °C 30.51 in /  1033.1 hPa NE 0.7 mph /  1.1 km/h 3.5 mph /  5.6 km/h 44 % 0.00 in /  0 mm
08:18 31.4 °F /  -0.3 °C 12.5 °F /  -10.8 °C 30.51 in /  1033.1 hPa NE 0.5 mph /  0.8 km/h 2.0 mph /  3.2 km/h 45 % 0.00 in /  0 mm
08:23 31.8 °F /  -0.1 °C 12.3 °F /  -10.9 °C 30.51 in /  1033.1 hPa Calm   1.2 mph /  1.9 km/h 44 % 0.00 in /  0 mm
08:28 32.0 °F /  0 °C 11.5 °F /  -11.4 °C 30.51 in /  1033.1 hPa NE 3.2 mph /  5.1 km/h 5.0 mph /  8 km/h 42 % 0.00 in /  0 mm
08:33 32.0 °F /  0 °C 10.9 °F /  -11.7 °C 30.51 in /  1033.1 hPa East 2.3 mph /  3.7 km/h 3.5 mph /  5.6 km/h 41 % 0.00 in /  0 mm
08:39 31.7 °F /  -0.2 °C 10.1 °F /  -12.2 °C 30.51 in /  1033.1 hPa ENE 2.2 mph /  3.5 km/h 4.6 mph /  7.4 km/h 40 % 0.00 in /  0 mm
08:44 31.8 °F /  -0.1 °C 11.3 °F /  -11.5 °C 30.51 in /  1033.1 hPa NE 1.6 mph /  2.6 km/h 3.5 mph /  5.6 km/h 42 % 0.00 in /  0 mm
08:49 31.8 °F /  -0.1 °C 11.3 °F /  -11.5 °C 30.51 in /  1033.1 hPa ENE 2.1 mph /  3.4 km/h 3.5 mph /  5.6 km/h 42 % 0.00 in /  0 mm
08:54 31.7 °F /  -0.2 °C 10.7 °F /  -11.8 °C 30.51 in /  1033.1 hPa ENE 0.8 mph /  1.3 km/h 3.5 mph /  5.6 km/h 41 % 0.00 in /  0 mm
08:59 31.4 °F /  -0.3 °C 10.9 °F /  -11.7 °C 30.51 in /  1033.1 hPa ENE 0.8 mph /  1.3 km/h 3.5 mph /  5.6 km/h 42 % 0.00 in /  0 mm
09:04 31.5 °F /  -0.3 °C 11.5 °F /  -11.4 °C 30.51 in /  1033.1 hPa ENE 2.1 mph /  3.4 km/h 3.5 mph /  5.6 km/h 43 % 0.00 in /  0 mm
09:09 31.5 °F /  -0.3 °C 11.0 °F /  -11.7 °C 30.51 in /  1033.1 hPa ENE 4.6 mph /  7.4 km/h 4.6 mph /  7.4 km/h 42 % 0.00 in /  0 mm
09:14 31.4 °F /  -0.3 °C 10.9 °F /  -11.7 °C 30.52 in /  1033.4 hPa ENE 2.0 mph /  3.2 km/h 4.0 mph /  6.4 km/h 42 % 0.00 in /  0 mm
09:19 31.7 °F /  -0.2 °C 11.7 °F /  -11.3 °C 30.52 in /  1033.4 hPa ENE 2.7 mph /  4.3 km/h 5.0 mph /  8 km/h 43 % 0.00 in /  0 mm
09:24 32.3 °F /  0.2 °C 11.7 °F /  -11.3 °C 30.52 in /  1033.4 hPa ENE 0.7 mph /  1.1 km/h 3.5 mph /  5.6 km/h 42 % 0.00 in /  0 mm
09:29 32.6 °F /  0.3 °C 11.5 °F /  -11.4 °C 30.52 in /  1033.4 hPa ESE 2.5 mph /  4 km/h 4.0 mph /  6.4 km/h 41 % 0.00 in /  0 mm
09:34 32.9 °F /  0.5 °C 11.2 °F /  -11.6 °C 30.52 in /  1033.4 hPa ENE 1.7 mph /  2.7 km/h 3.0 mph /  4.8 km/h 40 % 0.00 in /  0 mm
09:39 33.4 °F /  0.8 °C 11.1 °F /  -11.6 °C 30.52 in /  1033.4 hPa ENE 0.8 mph /  1.3 km/h 3.5 mph /  5.6 km/h 39 % 0.00 in /  0 mm
09:45 33.8 °F /  1 °C 11.4 °F /  -11.4 °C 30.52 in /  1033.4 hPa NE 1.6 mph /  2.6 km/h 3.5 mph /  5.6 km/h 39 % 0.00 in /  0 mm
09:50 33.9 °F /  1.1 °C 11.5 °F /  -11.4 °C 30.52 in /  1033.4 hPa NNE 1.3 mph /  2.1 km/h 4.0 mph /  6.4 km/h 39 % 0.00 in /  0 mm
09:55 34.1 °F /  1.2 °C 11.7 °F /  -11.3 °C 30.52 in /  1033.4 hPa NE 0.5 mph /  0.8 km/h 2.0 mph /  3.2 km/h 39 % 0.00 in /  0 mm
10:00 34.7 °F /  1.5 °C 12.8 °F /  -10.7 °C 30.52 in /  1033.4 hPa ENE 1.9 mph /  3.1 km/h 4.6 mph /  7.4 km/h 40 % 0.00 in /  0 mm
10:05 34.6 °F /  1.4 °C 11.6 °F /  -11.3 °C 30.52 in /  1033.4 hPa ENE 3.0 mph /  4.8 km/h 3.5 mph /  5.6 km/h 38 % 0.00 in /  0 mm
10:10 34.4 °F /  1.3 °C 12.5 °F /  -10.8 °C 30.51 in /  1033.1 hPa ENE 0.7 mph /  1.1 km/h 2.3 mph /  3.7 km/h 40 % 0.00 in /  0 mm
10:15 34.9 °F /  1.6 °C 13.0 °F /  -10.6 °C 30.51 in /  1033.1 hPa NE 2.4 mph /  3.9 km/h 4.6 mph /  7.4 km/h 40 % 0.00 in /  0 mm
10:20 35.0 °F /  1.7 °C 12.5 °F /  -10.8 °C 30.51 in /  1033.1 hPa NE 1.9 mph /  3.1 km/h 3.5 mph /  5.6 km/h 39 % 0.00 in /  0 mm
10:25 35.7 °F /  2.1 °C 13.7 °F /  -10.2 °C 30.51 in /  1033.1 hPa NE 1.4 mph /  2.3 km/h 3.5 mph /  5.6 km/h 40 % 0.00 in /  0 mm
10:30 36.6 °F /  2.6 °C 13.9 °F /  -10.1 °C 30.51 in /  1033.1 hPa North 2.9 mph /  4.7 km/h 3.5 mph /  5.6 km/h 39 % 0.00 in /  0 mm
10:35 37.5 °F /  3.1 °C 14.2 °F /  -9.9 °C 30.51 in /  1033.1 hPa North 2.8 mph /  4.5 km/h 6.0 mph /  9.7 km/h 38 % 0.00 in /  0 mm
10:40 38.2 °F /  3.4 °C 14.2 °F /  -9.9 °C 30.51 in /  1033.1 hPa NNE 2.8 mph /  4.5 km/h 4.0 mph /  6.4 km/h 37 % 0.00 in /  0 mm
10:45 38.6 °F /  3.7 °C 13.9 °F /  -10.1 °C 30.51 in /  1033.1 hPa NNE 3.0 mph /  4.8 km/h 5.0 mph /  8 km/h 36 % 0.00 in /  0 mm
10:51 38.9 °F /  3.8 °C 13.5 °F /  -10.3 °C 30.51 in /  1033.1 hPa NNE 3.3 mph /  5.3 km/h 4.0 mph /  6.4 km/h 35 % 0.00 in /  0 mm
10:56 39.1 °F /  3.9 °C 14.4 °F /  -9.8 °C 30.51 in /  1033.1 hPa NE 3.1 mph /  5 km/h 4.6 mph /  7.4 km/h 36 % 0.00 in /  0 mm
11:01 39.5 °F /  4.2 °C 14.7 °F /  -9.6 °C 30.51 in /  1033.1 hPa NE 2.3 mph /  3.7 km/h 4.0 mph /  6.4 km/h 36 % 0.00 in /  0 mm
11:06 39.7 °F /  4.3 °C 14.2 °F /  -9.9 °C 30.50 in /  1032.7 hPa NNE 2.3 mph /  3.7 km/h 3.5 mph /  5.6 km/h 35 % 0.00 in /  0 mm
11:11 39.5 °F /  4.2 °C 13.4 °F /  -10.3 °C 30.50 in /  1032.7 hPa ENE 1.7 mph /  2.7 km/h 3.5 mph /  5.6 km/h 34 % 0.00 in /  0 mm
11:16 39.4 °F /  4.1 °C 15.9 °F /  -8.9 °C 30.50 in /  1032.7 hPa NE 1.8 mph /  2.9 km/h 3.5 mph /  5.6 km/h 38 % 0.00 in /  0 mm
11:21 40.1 °F /  4.5 °C 13.9 °F /  -10.1 °C 30.50 in /  1032.7 hPa NE 1.5 mph /  2.4 km/h 3.5 mph /  5.6 km/h 34 % 0.00 in /  0 mm
11:26 39.0 °F /  3.9 °C 13.0 °F /  -10.6 °C 30.50 in /  1032.7 hPa NNE 1.8 mph /  2.9 km/h 3.5 mph /  5.6 km/h 34 % 0.00 in /  0 mm
11:31 39.3 °F /  4.1 °C 15.8 °F /  -9 °C 30.49 in /  1032.4 hPa ENE 2.4 mph /  3.9 km/h 3.5 mph /  5.6 km/h 38 % 0.00 in /  0 mm
11:34 39.7 °F /  4.3 °C 16.1 °F /  -8.8 °C 30.49 in /  1032.4 hPa NE 3.1 mph /  5 km/h 5.8 mph /  9.3 km/h 38 % 0.00 in /  0 mm
11:39 40.1 °F /  4.5 °C 17.1 °F /  -8.3 °C 30.49 in /  1032.4 hPa NE 2.7 mph /  4.3 km/h 3.5 mph /  5.6 km/h 39 % 0.00 in /  0 mm
11:44 40.8 °F /  4.9 °C 18.3 °F /  -7.6 °C 30.49 in /  1032.4 hPa NNE 2.8 mph /  4.5 km/h 4.0 mph /  6.4 km/h 40 % 0.00 in /  0 mm
11:49 41.5 °F /  5.3 °C 17.7 °F /  -7.9 °C 30.49 in /  1032.4 hPa NNE 1.5 mph /  2.4 km/h 3.5 mph /  5.6 km/h 38 % 0.00 in /  0 mm
11:55 41.6 °F /  5.3 °C 18.4 °F /  -7.6 °C 30.48 in /  1032.1 hPa NNE 3.2 mph /  5.1 km/h 4.6 mph /  7.4 km/h 39 % 0.00 in /  0 mm
12:00 41.5 °F /  5.3 °C 17.7 °F /  -7.9 °C 30.48 in /  1032.1 hPa ENE 2.0 mph /  3.2 km/h 3.5 mph /  5.6 km/h 38 % 0.00 in /  0 mm
12:05 41.5 °F /  5.3 °C 18.4 °F /  -7.6 °C 30.48 in /  1032.1 hPa NNW 3.8 mph /  6.1 km/h 5.8 mph /  9.3 km/h 39 % 0.00 in /  0 mm
12:10 41.2 °F /  5.1 °C 16.9 °F /  -8.4 °C 30.48 in /  1032.1 hPa ENE 3.0 mph /  4.8 km/h 4.6 mph /  7.4 km/h 37 % 0.00 in /  0 mm
12:15 40.7 °F /  4.8 °C 18.2 °F /  -7.7 °C 30.47 in /  1031.7 hPa ENE 2.5 mph /  4 km/h 4.6 mph /  7.4 km/h 40 % 0.00 in /  0 mm
12:20 40.5 °F /  4.7 °C 17.5 °F /  -8.1 °C 30.47 in /  1031.7 hPa NNE 3.2 mph /  5.1 km/h 5.8 mph /  9.3 km/h 39 % 0.00 in /  0 mm
12:25 40.8 °F /  4.9 °C 19.5 °F /  -6.9 °C 30.47 in /  1031.7 hPa NNE 3.8 mph /  6.1 km/h 5.8 mph /  9.3 km/h 42 % 0.00 in /  0 mm
12:30 41.0 °F /  5 °C 19.1 °F /  -7.2 °C 30.47 in /  1031.7 hPa NNW 3.9 mph /  6.3 km/h 6.0 mph /  9.7 km/h 41 % 0.00 in /  0 mm
12:35 41.1 °F /  5.1 °C 19.2 °F /  -7.1 °C 30.46 in /  1031.4 hPa NE 2.0 mph /  3.2 km/h 3.5 mph /  5.6 km/h 41 % 0.00 in /  0 mm
12:40 41.1 °F /  5.1 °C 19.7 °F /  -6.8 °C 30.46 in /  1031.4 hPa North 2.9 mph /  4.7 km/h 5.0 mph /  8 km/h 42 % 0.00 in /  0 mm
12:46 41.8 °F /  5.4 °C 20.9 °F /  -6.2 °C 30.45 in /  1031 hPa NNE 2.5 mph /  4 km/h 3.5 mph /  5.6 km/h 43 % 0.00 in /  0 mm
12:51 42.5 °F /  5.8 °C 22.6 °F /  -5.2 °C 30.45 in /  1031 hPa NE 2.2 mph /  3.5 km/h 3.5 mph /  5.6 km/h 45 % 0.00 in /  0 mm
12:56 42.7 °F /  5.9 °C 21.2 °F /  -6 °C 30.45 in /  1031 hPa NNE 2.4 mph /  3.9 km/h 4.0 mph /  6.4 km/h 42 % 0.00 in /  0 mm
13:01 43.0 °F /  6.1 °C 21.4 °F /  -5.9 °C 30.45 in /  1031 hPa North 2.9 mph /  4.7 km/h 4.6 mph /  7.4 km/h 42 % 0.00 in /  0 mm
13:06 42.8 °F /  6 °C 20.7 °F /  -6.3 °C 30.45 in /  1031 hPa North 0.4 mph /  0.6 km/h 5.8 mph /  9.3 km/h 41 % 0.00 in /  0 mm
13:11 42.8 °F /  6 °C 20.1 °F /  -6.6 °C 30.44 in /  1030.7 hPa North 0.8 mph /  1.3 km/h 3.5 mph /  5.6 km/h 40 % 0.00 in /  0 mm
13:16 42.9 °F /  6.1 °C 20.2 °F /  -6.6 °C 30.44 in /  1030.7 hPa North 2.2 mph /  3.5 km/h 3.5 mph /  5.6 km/h 40 % 0.00 in /  0 mm
13:21 43.0 °F /  6.1 °C 19.7 °F /  -6.8 °C 30.44 in /  1030.7 hPa NNE 2.2 mph /  3.5 km/h 4.6 mph /  7.4 km/h 39 % 0.00 in /  0 mm
13:26 42.7 °F /  5.9 °C 18.8 °F /  -7.3 °C 30.44 in /  1030.7 hPa NE 2.9 mph /  4.7 km/h 4.0 mph /  6.4 km/h 38 % 0.00 in /  0 mm
13:31 42.5 °F /  5.8 °C 19.8 °F /  -6.8 °C 30.43 in /  1030.4 hPa NNE 2.2 mph /  3.5 km/h 3.5 mph /  5.6 km/h 40 % 0.00 in /  0 mm
13:36 42.9 °F /  6.1 °C 20.2 °F /  -6.6 °C 30.43 in /  1030.4 hPa NNE 3.3 mph /  5.3 km/h 4.6 mph /  7.4 km/h 40 % 0.00 in /  0 mm
13:41 42.9 °F /  6.1 °C 19.6 °F /  -6.9 °C 30.43 in /  1030.4 hPa NE 3.0 mph /  4.8 km/h 6.9 mph /  11.1 km/h 39 % 0.00 in /  0 mm
13:46 42.5 °F /  5.8 °C 19.8 °F /  -6.8 °C 30.43 in /  1030.4 hPa NE 3.7 mph /  6 km/h 4.6 mph /  7.4 km/h 40 % 0.00 in /  0 mm
13:51 42.4 °F /  5.8 °C 19.8 °F /  -6.8 °C 30.43 in /  1030.4 hPa NE 2.1 mph /  3.4 km/h 3.5 mph /  5.6 km/h 40 % 0.00 in /  0 mm
13:57 42.6 °F /  5.9 °C 20.5 °F /  -6.4 °C 30.43 in /  1030.4 hPa NE 2.2 mph /  3.5 km/h 3.5 mph /  5.6 km/h 41 % 0.00 in /  0 mm
14:02 42.6 °F /  5.9 °C 18.7 °F /  -7.4 °C 30.42 in /  1030 hPa East 2.4 mph /  3.9 km/h 4.6 mph /  7.4 km/h 38 % 0.00 in /  0 mm
14:07 42.7 °F /  5.9 °C 18.2 °F /  -7.7 °C 30.42 in /  1030 hPa ENE 1.4 mph /  2.3 km/h 3.5 mph /  5.6 km/h 37 % 0.00 in /  0 mm
14:12 42.7 °F /  5.9 °C 17.6 °F /  -8 °C 30.42 in /  1030 hPa ENE 3.8 mph /  6.1 km/h 4.6 mph /  7.4 km/h 36 % 0.00 in /  0 mm
14:17 42.5 °F /  5.8 °C 17.4 °F /  -8.1 °C 30.42 in /  1030 hPa NNE 4.5 mph /  7.2 km/h 5.8 mph /  9.3 km/h 36 % 0.00 in /  0 mm
14:22 42.5 °F /  5.8 °C 17.4 °F /  -8.1 °C 30.42 in /  1030 hPa NNE 3.4 mph /  5.5 km/h 6.0 mph /  9.7 km/h 36 % 0.00 in /  0 mm
14:27 42.5 °F /  5.8 °C 18.6 °F /  -7.4 °C 30.42 in /  1030 hPa NE 2.4 mph /  3.9 km/h 4.6 mph /  7.4 km/h 38 % 0.00 in /  0 mm
14:32 42.3 °F /  5.7 °C 19.1 °F /  -7.2 °C 30.42 in /  1030 hPa NE 2.7 mph /  4.3 km/h 4.6 mph /  7.4 km/h 39 % 0.00 in /  0 mm
14:37 41.9 °F /  5.5 °C 19.3 °F /  -7.1 °C 30.42 in /  1030 hPa North 2.7 mph /  4.3 km/h 5.8 mph /  9.3 km/h 40 % 0.00 in /  0 mm
14:42 41.8 °F /  5.4 °C 18.0 °F /  -7.8 °C 30.42 in /  1030 hPa NE 2.6 mph /  4.2 km/h 3.5 mph /  5.6 km/h 38 % 0.00 in /  0 mm
14:47 41.8 °F /  5.4 °C 16.8 °F /  -8.4 °C 30.42 in /  1030 hPa NNE 3.2 mph /  5.1 km/h 4.6 mph /  7.4 km/h 36 % 0.00 in /  0 mm
14:52 41.7 °F /  5.4 °C 16.7 °F /  -8.5 °C 30.42 in /  1030 hPa North 3.0 mph /  4.8 km/h 4.6 mph /  7.4 km/h 36 % 0.00 in /  0 mm
14:57 41.7 °F /  5.4 °C 16.7 °F /  -8.5 °C 30.42 in /  1030 hPa NNE 2.6 mph /  4.2 km/h 4.0 mph /  6.4 km/h 36 % 0.00 in /  0 mm
15:02 41.4 °F /  5.2 °C 16.4 °F /  -8.7 °C 30.42 in /  1030 hPa NNE 2.0 mph /  3.2 km/h 3.5 mph /  5.6 km/h 36 % 0.00 in /  0 mm
15:07 41.3 °F /  5.2 °C 15.7 °F /  -9.1 °C 30.42 in /  1030 hPa NNW 3.4 mph /  5.5 km/h 4.6 mph /  7.4 km/h 35 % 0.00 in /  0 mm
15:13 41.3 °F /  5.2 °C 15.7 °F /  -9.1 °C 30.42 in /  1030 hPa NNE 2.6 mph /  4.2 km/h 3.5 mph /  5.6 km/h 35 % 0.00 in /  0 mm
15:18 41.2 °F /  5.1 °C 16.9 °F /  -8.4 °C 30.42 in /  1030 hPa North 2.5 mph /  4 km/h 3.5 mph /  5.6 km/h 37 % 0.00 in /  0 mm
15:23 41.0 °F /  5 °C 16.0 °F /  -8.9 °C 30.42 in /  1030 hPa NNE 2.9 mph /  4.7 km/h 4.6 mph /  7.4 km/h 36 % 0.00 in /  0 mm
15:28 40.9 °F /  4.9 °C 16.6 °F /  -8.6 °C 30.42 in /  1030 hPa NNE 1.0 mph /  1.6 km/h 3.0 mph /  4.8 km/h 37 % 0.00 in /  0 mm
15:33 41.0 °F /  5 °C 17.3 °F /  -8.2 °C 30.42 in /  1030 hPa NNE 1.0 mph /  1.6 km/h 3.0 mph /  4.8 km/h 38 % 0.00 in /  0 mm
15:38 40.9 °F /  4.9 °C 16.0 °F /  -8.9 °C 30.42 in /  1030 hPa NNE 1.8 mph /  2.9 km/h 3.5 mph /  5.6 km/h 36 % 0.00 in /  0 mm
15:43 40.7 °F /  4.8 °C 16.4 °F /  -8.7 °C 30.41 in /  1029.7 hPa NNE 1.0 mph /  1.6 km/h 3.0 mph /  4.8 km/h 37 % 0.00 in /  0 mm
15:48 40.6 °F /  4.8 °C 16.9 °F /  -8.4 °C 30.41 in /  1029.7 hPa NNE 1.3 mph /  2.1 km/h 3.5 mph /  5.6 km/h 38 % 0.00 in /  0 mm
15:53 40.6 °F /  4.8 °C 16.9 °F /  -8.4 °C 30.41 in /  1029.7 hPa Calm   2.0 mph /  3.2 km/h 38 % 0.00 in /  0 mm
15:58 40.5 °F /  4.7 °C 16.9 °F /  -8.4 °C 30.41 in /  1029.7 hPa Calm   1.2 mph /  1.9 km/h 38 % 0.00 in /  0 mm
16:03 40.5 °F /  4.7 °C 15.6 °F /  -9.1 °C 30.41 in /  1029.7 hPa Calm     36 % 0.00 in /  0 mm
16:08 40.5 °F /  4.7 °C 16.2 °F /  -8.8 °C 30.41 in /  1029.7 hPa NE 1.7 mph /  2.7 km/h 3.5 mph /  5.6 km/h 37 % 0.00 in /  0 mm
16:13 40.5 °F /  4.7 °C 16.9 °F /  -8.4 °C 30.41 in /  1029.7 hPa Calm     38 % 0.00 in /  0 mm
16:18 40.6 °F /  4.8 °C 17.5 °F /  -8.1 °C 30.41 in /  1029.7 hPa SSE 0.2 mph /  0.3 km/h 2.3 mph /  3.7 km/h 39 % 0.00 in /  0 mm
16:23 40.7 °F /  4.8 °C 18.2 °F /  -7.7 °C 30.41 in /  1029.7 hPa West 0.2 mph /  0.3 km/h 1.2 mph /  1.9 km/h 40 % 0.00 in /  0 mm
16:28 40.9 °F /  4.9 °C 19.0 °F /  -7.2 °C 30.40 in /  1029.3 hPa SSW 2.2 mph /  3.5 km/h 5.8 mph /  9.3 km/h 41 % 0.00 in /  0 mm
16:34 41.2 °F /  5.1 °C 19.8 °F /  -6.8 °C 30.41 in /  1029.7 hPa South 0.7 mph /  1.1 km/h 4.6 mph /  7.4 km/h 42 % 0.00 in /  0 mm
16:39 41.3 °F /  5.2 °C 19.9 °F /  -6.7 °C 30.40 in /  1029.3 hPa SSW 1.7 mph /  2.7 km/h 3.5 mph /  5.6 km/h 42 % 0.00 in /  0 mm
16:44 41.4 °F /  5.2 °C 20.0 °F /  -6.7 °C 30.41 in /  1029.7 hPa SSW 5.9 mph /  9.5 km/h 9.2 mph /  14.8 km/h 42 % 0.00 in /  0 mm
16:47 41.4 °F /  5.2 °C 20.0 °F /  -6.7 °C 30.41 in /  1029.7 hPa SW 3.4 mph /  5.5 km/h 6.9 mph /  11.1 km/h 42 % 0.00 in /  0 mm
16:52 41.3 °F /  5.2 °C 19.9 °F /  -6.7 °C 30.41 in /  1029.7 hPa SSW 2.3 mph /  3.7 km/h 4.6 mph /  7.4 km/h 42 % 0.00 in /  0 mm
16:57 41.2 °F /  5.1 °C 20.9 °F /  -6.2 °C 30.41 in /  1029.7 hPa SSW 2.9 mph /  4.7 km/h 5.0 mph /  8 km/h 44 % 0.00 in /  0 mm
16:58 41.2 °F /  5.1 °C 20.9 °F /  -6.2 °C 30.41 in /  1029.7 hPa SSW 4.9 mph /  7.9 km/h 8.1 mph /  13 km/h 44 % 0.00 in /  0 mm
17:01 41.1 °F /  5.1 °C 20.8 °F /  -6.2 °C 30.41 in /  1029.7 hPa SSW 4.3 mph /  6.9 km/h 5.8 mph /  9.3 km/h 44 % 0.00 in /  0 mm
17:06 40.7 °F /  4.8 °C 20.5 °F /  -6.4 °C 30.41 in /  1029.7 hPa SSW 0.9 mph /  1.4 km/h 5.8 mph /  9.3 km/h 44 % 0.00 in /  0 mm
17:11 40.5 °F /  4.7 °C 20.8 °F /  -6.2 °C 30.41 in /  1029.7 hPa SSW 3.3 mph /  5.3 km/h 5.8 mph /  9.3 km/h 45 % 0.00 in /  0 mm
17:16 40.3 °F /  4.6 °C 21.1 °F /  -6.1 °C 30.41 in /  1029.7 hPa SSW 1.5 mph /  2.4 km/h 3.5 mph /  5.6 km/h 46 % 0.00 in /  0 mm
17:21 40.1 °F /  4.5 °C 21.0 °F /  -6.1 °C 30.42 in /  1030 hPa SSW 1.9 mph /  3.1 km/h 3.5 mph /  5.6 km/h 46 % 0.00 in /  0 mm
17:26 39.9 °F /  4.4 °C 21.3 °F /  -5.9 °C 30.41 in /  1029.7 hPa SW 1.2 mph /  1.9 km/h 4.6 mph /  7.4 km/h 47 % 0.00 in /  0 mm
17:31 39.7 °F /  4.3 °C 21.6 °F /  -5.8 °C 30.41 in /  1029.7 hPa South 1.1 mph /  1.8 km/h 4.0 mph /  6.4 km/h 48 % 0.00 in /  0 mm
17:37 39.4 °F /  4.1 °C 21.8 °F /  -5.7 °C 30.41 in /  1029.7 hPa SSE 4.1 mph /  6.6 km/h 5.8 mph /  9.3 km/h 49 % 0.00 in /  0 mm
17:42 38.9 °F /  3.8 °C 21.8 °F /  -5.7 °C 30.41 in /  1029.7 hPa South 3.9 mph /  6.3 km/h 5.8 mph /  9.3 km/h 50 % 0.00 in /  0 mm
17:47 38.7 °F /  3.7 °C 22.1 °F /  -5.5 °C 30.41 in /  1029.7 hPa South 1.1 mph /  1.8 km/h 3.5 mph /  5.6 km/h 51 % 0.00 in /  0 mm
17:52 38.4 °F /  3.6 °C 22.3 °F /  -5.4 °C 30.41 in /  1029.7 hPa SSW 3.3 mph /  5.3 km/h 4.6 mph /  7.4 km/h 52 % 0.00 in /  0 mm
17:55 38.3 °F /  3.5 °C 22.6 °F /  -5.2 °C 30.41 in /  1029.7 hPa SW 4.7 mph /  7.6 km/h 8.0 mph /  12.9 km/h 53 % 0.00 in /  0 mm
18:00 38.1 °F /  3.4 °C 22.5 °F /  -5.3 °C 30.41 in /  1029.7 hPa SSE 3.2 mph /  5.1 km/h 7.0 mph /  11.3 km/h 53 % 0.00 in /  0 mm
18:05 37.9 °F /  3.3 °C 22.7 °F /  -5.2 °C 30.41 in /  1029.7 hPa South 2.8 mph /  4.5 km/h 3.5 mph /  5.6 km/h 54 % 0.00 in /  0 mm
18:10 37.7 °F /  3.2 °C 23.4 °F /  -4.8 °C 30.41 in /  1029.7 hPa SSW 4.5 mph /  7.2 km/h 7.0 mph /  11.3 km/h 56 % 0.00 in /  0 mm
18:18 37.4 °F /  3 °C 23.5 °F /  -4.7 °C 30.41 in /  1029.7 hPa SSW 1.0 mph /  1.6 km/h 6.0 mph /  9.7 km/h 57 % 0.00 in /  0 mm
18:19 37.4 °F /  3 °C 23.5 °F /  -4.7 °C 30.41 in /  1029.7 hPa SW 2.4 mph /  3.9 km/h 7.0 mph /  11.3 km/h 57 % 0.00 in /  0 mm
18:24 37.3 °F /  2.9 °C 23.9 °F /  -4.5 °C 30.42 in /  1030 hPa SSW 3.1 mph /  5 km/h 7.0 mph /  11.3 km/h 58 % 0.00 in /  0 mm
18:29 37.1 °F /  2.8 °C 23.7 °F /  -4.6 °C 30.41 in /  1029.7 hPa South 3.0 mph /  4.8 km/h 4.6 mph /  7.4 km/h 58 % 0.00 in /  0 mm
18:34 37.0 °F /  2.8 °C 24.0 °F /  -4.4 °C 30.42 in /  1030 hPa SSW 1.2 mph /  1.9 km/h 2.3 mph /  3.7 km/h 59 % 0.00 in /  0 mm
18:35 37.0 °F /  2.8 °C 24.0 °F /  -4.4 °C 30.41 in /  1029.7 hPa SSW 0.9 mph /  1.4 km/h 2.3 mph /  3.7 km/h 59 % 0.00 in /  0 mm
18:40 37.0 °F /  2.8 °C 24.0 °F /  -4.4 °C 30.42 in /  1030 hPa South 2.5 mph /  4 km/h 2.5 mph /  4 km/h 59 % 0.00 in /  0 mm
18:45 36.9 °F /  2.7 °C 23.9 °F /  -4.5 °C 30.42 in /  1030 hPa SSE 0.2 mph /  0.3 km/h 3.5 mph /  5.6 km/h 59 % 0.00 in /  0 mm
18:50 36.8 °F /  2.7 °C 24.2 °F /  -4.3 °C 30.42 in /  1030 hPa South 2.3 mph /  3.7 km/h 5.0 mph /  8 km/h 60 % 0.00 in /  0 mm
18:55 36.8 °F /  2.7 °C 24.6 °F /  -4.1 °C 30.41 in /  1029.7 hPa SSW 3.0 mph /  4.8 km/h 4.6 mph /  7.4 km/h 61 % 0.00 in /  0 mm
19:00 36.7 °F /  2.6 °C 24.5 °F /  -4.2 °C 30.41 in /  1029.7 hPa South 1.8 mph /  2.9 km/h 6.9 mph /  11.1 km/h 61 % 0.00 in /  0 mm
19:05 36.5 °F /  2.5 °C 24.3 °F /  -4.3 °C 30.41 in /  1029.7 hPa South 1.0 mph /  1.6 km/h 3.0 mph /  4.8 km/h 61 % 0.00 in /  0 mm
19:10 36.5 °F /  2.5 °C 24.7 °F /  -4.1 °C 30.42 in /  1030 hPa South 1.4 mph /  2.3 km/h 3.5 mph /  5.6 km/h 62 % 0.00 in /  0 mm
19:15 36.4 °F /  2.4 °C 24.6 °F /  -4.1 °C 30.41 in /  1029.7 hPa SSW 1.8 mph /  2.9 km/h 5.0 mph /  8 km/h 62 % 0.00 in /  0 mm
19:21 36.4 °F /  2.4 °C 25.0 °F /  -3.9 °C 30.41 in /  1029.7 hPa SSW 2.0 mph /  3.2 km/h 4.6 mph /  7.4 km/h 63 % 0.00 in /  0 mm
19:24 36.3 °F /  2.4 °C 24.9 °F /  -3.9 °C 30.42 in /  1030 hPa South 2.9 mph /  4.7 km/h 4.6 mph /  7.4 km/h 63 % 0.00 in /  0 mm
19:29 36.2 °F /  2.3 °C 25.2 °F /  -3.8 °C 30.42 in /  1030 hPa South 1.8 mph /  2.9 km/h 4.6 mph /  7.4 km/h 64 % 0.00 in /  0 mm
19:32 36.1 °F /  2.3 °C 25.1 °F /  -3.8 °C 30.42 in /  1030 hPa South 2.1 mph /  3.4 km/h 4.6 mph /  7.4 km/h 64 % 0.00 in /  0 mm
19:37 36.0 °F /  2.2 °C 25.4 °F /  -3.7 °C 30.42 in /  1030 hPa SSW 2.3 mph /  3.7 km/h 5.0 mph /  8 km/h 65 % 0.00 in /  0 mm
19:42 35.9 °F /  2.2 °C 25.3 °F /  -3.7 °C 30.42 in /  1030 hPa SSW 3.2 mph /  5.1 km/h 6.9 mph /  11.1 km/h 65 % 0.00 in /  0 mm
19:47 35.9 °F /  2.2 °C 25.6 °F /  -3.6 °C 30.41 in /  1029.7 hPa South 2.3 mph /  3.7 km/h 4.6 mph /  7.4 km/h 66 % 0.00 in /  0 mm
19:52 35.8 °F /  2.1 °C 25.5 °F /  -3.6 °C 30.42 in /  1030 hPa SSW 2.9 mph /  4.7 km/h 3.5 mph /  5.6 km/h 66 % 0.00 in /  0 mm
19:53 35.8 °F /  2.1 °C 25.9 °F /  -3.4 °C 30.42 in /  1030 hPa South 3.8 mph /  6.1 km/h 6.9 mph /  11.1 km/h 67 % 0.00 in /  0 mm
19:56 35.8 °F /  2.1 °C 25.9 °F /  -3.4 °C 30.42 in /  1030 hPa South 5.0 mph /  8 km/h 8.1 mph /  13 km/h 67 % 0.00 in /  0 mm
20:00 35.7 °F /  2.1 °C 25.8 °F /  -3.4 °C 30.42 in /  1030 hPa South 2.7 mph /  4.3 km/h 6.0 mph /  9.7 km/h 67 % 0.00 in /  0 mm
20:03 35.7 °F /  2.1 °C 25.8 °F /  -3.4 °C 30.42 in /  1030 hPa SSW 1.5 mph /  2.4 km/h 4.6 mph /  7.4 km/h 67 % 0.00 in /  0 mm
20:08 35.7 °F /  2.1 °C 26.2 °F /  -3.2 °C 30.42 in /  1030 hPa South 2.7 mph /  4.3 km/h 4.0 mph /  6.4 km/h 68 % 0.00 in /  0 mm
20:13 35.6 °F /  2 °C 26.1 °F /  -3.3 °C 30.42 in /  1030 hPa SSW 2.5 mph /  4 km/h 5.8 mph /  9.3 km/h 68 % 0.00 in /  0 mm
20:18 35.6 °F /  2 °C 26.4 °F /  -3.1 °C 30.42 in /  1030 hPa South 0.4 mph /  0.6 km/h 2.3 mph /  3.7 km/h 69 % 0.00 in /  0 mm
20:23 35.5 °F /  1.9 °C 26.3 °F /  -3.2 °C 30.42 in /  1030 hPa SSW 1.4 mph /  2.3 km/h 3.5 mph /  5.6 km/h 69 % 0.00 in /  0 mm
20:28 35.5 °F /  1.9 °C 26.3 °F /  -3.2 °C 30.42 in /  1030 hPa SW 0.8 mph /  1.3 km/h 2.3 mph /  3.7 km/h 69 % 0.00 in /  0 mm
20:33 35.5 °F /  1.9 °C 26.3 °F /  -3.2 °C 30.42 in /  1030 hPa SSW 0.7 mph /  1.1 km/h 2.3 mph /  3.7 km/h 69 % 0.00 in /  0 mm
20:38 35.5 °F /  1.9 °C 26.7 °F /  -2.9 °C 30.42 in /  1030 hPa South 1.0 mph /  1.6 km/h 3.5 mph /  5.6 km/h 70 % 0.00 in /  0 mm
20:44 35.5 °F /  1.9 °C 26.7 °F /  -2.9 °C 30.42 in /  1030 hPa South 0.5 mph /  0.8 km/h 2.0 mph /  3.2 km/h 70 % 0.00 in /  0 mm
20:49 35.5 °F /  1.9 °C 27.0 °F /  -2.8 °C 30.42 in /  1030 hPa South 1.5 mph /  2.4 km/h 3.5 mph /  5.6 km/h 71 % 0.00 in /  0 mm
20:54 35.5 °F /  1.9 °C 27.4 °F /  -2.6 °C 30.41 in /  1029.7 hPa South 1.9 mph /  3.1 km/h 4.6 mph /  7.4 km/h 72 % 0.00 in /  0 mm
20:59 35.5 °F /  1.9 °C 27.4 °F /  -2.6 °C 30.42 in /  1030 hPa South 0.8 mph /  1.3 km/h 3.5 mph /  5.6 km/h 72 % 0.00 in /  0 mm
21:04 35.6 °F /  2 °C 27.8 °F /  -2.3 °C 30.41 in /  1029.7 hPa South 1.7 mph /  2.7 km/h 3.5 mph /  5.6 km/h 73 % 0.00 in /  0 mm
21:09 35.8 °F /  2.1 °C 28.0 °F /  -2.2 °C 30.41 in /  1029.7 hPa SSW 0.5 mph /  0.8 km/h 4.6 mph /  7.4 km/h 73 % 0.00 in /  0 mm
21:10 35.8 °F /  2.1 °C 28.0 °F /  -2.2 °C 30.41 in /  1029.7 hPa South 1.7 mph /  2.7 km/h 3.0 mph /  4.8 km/h 73 % 0.00 in /  0 mm
21:15 35.9 °F /  2.2 °C 28.1 °F /  -2.2 °C 30.41 in /  1029.7 hPa Calm   3.5 mph /  5.6 km/h 73 % 0.00 in /  0 mm
21:20 36.1 °F /  2.3 °C 28.3 °F /  -2.1 °C 30.41 in /  1029.7 hPa SSE 2.9 mph /  4.7 km/h 3.5 mph /  5.6 km/h 73 % 0.00 in /  0 mm
21:25 36.3 °F /  2.4 °C 28.5 °F /  -1.9 °C 30.42 in /  1030 hPa Calm   3.5 mph /  5.6 km/h 73 % 0.00 in /  0 mm
21:30 36.4 °F /  2.4 °C 28.6 °F /  -1.9 °C 30.42 in /  1030 hPa South 1.4 mph /  2.3 km/h 3.5 mph /  5.6 km/h 73 % 0.00 in /  0 mm
21:35 36.6 °F /  2.6 °C 28.8 °F /  -1.8 °C 30.41 in /  1029.7 hPa South 2.1 mph /  3.4 km/h 5.8 mph /  9.3 km/h 73 % 0.00 in /  0 mm
21:40 36.8 °F /  2.7 °C 29.3 °F /  -1.5 °C 30.41 in /  1029.7 hPa SSW 2.0 mph /  3.2 km/h 4.0 mph /  6.4 km/h 74 % 0.00 in /  0 mm
21:45 37.0 °F /  2.8 °C 29.1 °F /  -1.6 °C 30.41 in /  1029.7 hPa South 3.7 mph /  6 km/h 4.6 mph /  7.4 km/h 73 % 0.00 in /  0 mm
21:50 37.1 °F /  2.8 °C 29.2 °F /  -1.6 °C 30.41 in /  1029.7 hPa South 2.3 mph /  3.7 km/h 4.6 mph /  7.4 km/h 73 % 0.00 in /  0 mm
21:55 37.3 °F /  2.9 °C 29.4 °F /  -1.4 °C 30.41 in /  1029.7 hPa SSE 2.0 mph /  3.2 km/h 4.6 mph /  7.4 km/h 73 % 0.00 in /  0 mm
22:00 37.5 °F /  3.1 °C 29.6 °F /  -1.3 °C 30.41 in /  1029.7 hPa South 2.1 mph /  3.4 km/h 4.6 mph /  7.4 km/h 73 % 0.00 in /  0 mm
22:06 37.6 °F /  3.1 °C 29.7 °F /  -1.3 °C 30.41 in /  1029.7 hPa South 1.4 mph /  2.3 km/h 3.5 mph /  5.6 km/h 73 % 0.00 in /  0 mm
22:11 37.7 °F /  3.2 °C 29.8 °F /  -1.2 °C 30.41 in /  1029.7 hPa SE 0.4 mph /  0.6 km/h 5.0 mph /  8 km/h 73 % 0.00 in /  0 mm
22:16 37.9 °F /  3.3 °C 30.0 °F /  -1.1 °C 30.41 in /  1029.7 hPa South 0.6 mph /  1 km/h 2.3 mph /  3.7 km/h 73 % 0.00 in /  0 mm
22:21 38.0 °F /  3.3 °C 30.1 °F /  -1.1 °C 30.41 in /  1029.7 hPa SSW 2.0 mph /  3.2 km/h 2.3 mph /  3.7 km/h 73 % 0.00 in /  0 mm
22:26 38.1 °F /  3.4 °C 30.2 °F /  -1 °C 30.41 in /  1029.7 hPa SSW 1.3 mph /  2.1 km/h 2.3 mph /  3.7 km/h 73 % 0.00 in /  0 mm
22:31 38.2 °F /  3.4 °C 30.3 °F /  -0.9 °C 30.41 in /  1029.7 hPa South 0.7 mph /  1.1 km/h 3.5 mph /  5.6 km/h 73 % 0.00 in /  0 mm
22:36 38.3 °F /  3.5 °C 30.4 °F /  -0.9 °C 30.41 in /  1029.7 hPa South 1.7 mph /  2.7 km/h 3.5 mph /  5.6 km/h 73 % 0.00 in /  0 mm
22:41 38.4 °F /  3.6 °C 30.5 °F /  -0.8 °C 30.41 in /  1029.7 hPa South 1.1 mph /  1.8 km/h 3.5 mph /  5.6 km/h 73 % 0.00 in /  0 mm
22:46 38.4 °F /  3.6 °C 30.5 °F /  -0.8 °C 30.41 in /  1029.7 hPa South 0.5 mph /  0.8 km/h 2.3 mph /  3.7 km/h 73 % 0.00 in /  0 mm
22:51 38.5 °F /  3.6 °C 30.9 °F /  -0.6 °C 30.41 in /  1029.7 hPa SSE 0.7 mph /  1.1 km/h 2.3 mph /  3.7 km/h 74 % 0.00 in /  0 mm
22:56 38.6 °F /  3.7 °C 31.0 °F /  -0.6 °C 30.41 in /  1029.7 hPa Calm     74 % 0.00 in /  0 mm
23:01 38.7 °F /  3.7 °C 30.8 °F /  -0.7 °C 30.41 in /  1029.7 hPa SE 0.3 mph /  0.5 km/h 2.3 mph /  3.7 km/h 73 % 0.00 in /  0 mm
23:06 38.8 °F /  3.8 °C 31.2 °F /  -0.4 °C 30.41 in /  1029.7 hPa SSW 0.3 mph /  0.5 km/h 3.0 mph /  4.8 km/h 74 % 0.00 in /  0 mm
23:11 38.9 °F /  3.8 °C 31.3 °F /  -0.4 °C 30.40 in /  1029.3 hPa Calm   3.5 mph /  5.6 km/h 74 % 0.00 in /  0 mm
23:17 39.1 °F /  3.9 °C 31.5 °F /  -0.3 °C 30.41 in /  1029.7 hPa SE 2.4 mph /  3.9 km/h 3.5 mph /  5.6 km/h 74 % 0.00 in /  0 mm
23:22 39.1 °F /  3.9 °C 31.5 °F /  -0.3 °C 30.41 in /  1029.7 hPa Calm   1.2 mph /  1.9 km/h 74 % 0.00 in /  0 mm
23:27 39.2 °F /  4 °C 31.6 °F /  -0.2 °C 30.41 in /  1029.7 hPa SE 0.2 mph /  0.3 km/h 2.3 mph /  3.7 km/h 74 % 0.00 in /  0 mm
23:32 39.2 °F /  4 °C 31.6 °F /  -0.2 °C 30.41 in /  1029.7 hPa Calm   2.3 mph /  3.7 km/h 74 % 0.00 in /  0 mm
23:37 39.2 °F /  4 °C 31.6 °F /  -0.2 °C 30.41 in /  1029.7 hPa SE 0.1 mph /  0.2 km/h   74 % 0.00 in /  0 mm
23:42 39.3 °F /  4.1 °C 32.0 °F /  0 °C 30.41 in /  1029.7 hPa SSE 0.6 mph /  1 km/h 3.5 mph /  5.6 km/h 75 % 0.00 in /  0 mm
23:47 39.4 °F /  4.1 °C 32.5 °F /  0.3 °C 30.40 in /  1029.3 hPa SSE 0.3 mph /  0.5 km/h 1.2 mph /  1.9 km/h 76 % 0.00 in /  0 mm
23:52 39.4 °F /  4.1 °C 32.5 °F /  0.3 °C 30.40 in /  1029.3 hPa SSE 1.2 mph /  1.9 km/h 3.5 mph /  5.6 km/h 76 % 0.00 in /  0 mm
23:57 39.5 °F /  4.2 °C 32.9 °F /  0.5 °C 30.40 in /  1029.3 hPa SSE 0.1 mph /  0.2 km/h 1.2 mph /  1.9 km/h 77 % 0.00 in /  0 mm
Crab Meadow Weather
Compliments of Weather Underground - 3.25 mb

Script developed by  Jim McMurry - jmcmurry@mwt.net Adapted for the template by  Wim van der Kuil - Leuven-Template.eu

Weather Terms: Warning - A warning is issued when a hazardous weather or hydrologic event is occurring, imminent or likely. A warning means weather conditions pose a threat to life or property. People in the path of the storm need to take protective action.